Regional Weather Roundup
Issued by NWS

Current Version | Previous Version | Text Only | Print | Product List | Glossary On
Versions: 1 2 3 4 5 6 7 8 9 10 11 12 13 14 15 16 17 18 19 20 21 22 23 24 25 26 27 28 29 30 31 32 33 34 35 36 37 38 39 40 41 42 43 44 45 46 47 48 49 50
000
ASUS44 KOUN 220200
RWROK

WEATHER ROUNDUP FOR OKLAHOMA
NATIONAL WEATHER SERVICE NORMAN OK
900 PM CDT SAT SEP 21 2019

NOTE: "FAIR" INDICATES FEW OR NO CLOUDS BELOW 12,000 FEET WITH NO
      SIGNIFICANT WEATHER AND/OR OBSTRUCTIONS TO VISIBILITY.

OKZ001>007-009>012-014-015-017-220300-
NORTHWEST OKLAHOMA AND THE PANHANDLE

CITY           SKY/WX    TMP DP  RH WIND       PRES   REMARKS
GAGE           LGT RAIN  73  67  81 S20       29.94S
GUYMON         CLEAR     72  62  71 S17G25    29.88R
ENID/WOODRING  MOCLDY    81  68  65 SE12G20   29.90R
$$

OKZ016-021>023-033>039-044-045-220300-
SOUTHWEST OKLAHOMA

CITY           SKY/WX    TMP DP  RH WIND       PRES   REMARKS
LAWTON/REGL    MOCLDY    82  71  69 SE14      29.91S
LAWTON/FT SILL MOCLDY    81  74  78 SE12      29.90S
FREDERICK      CLOUDY    81  71  71 SE10      29.87S
CLINTON        LGT RAIN  73  70  90 W10       29.95S FOG
HOBART         HVY RAIN  76  72  87 W6G20     29.95R FOG
ALTUS AFB      LGT RAIN  75  71  88 NW8       29.93R
$$

OKZ018>020-024>031-220300-
CENTRAL OKLAHOMA

CITY           SKY/WX    TMP DP  RH WIND       PRES   REMARKS
OKLAHOMA CITY  MOCLDY    79  71  76 SE13      29.94S
OKC/WILEY POST MOCLDY    83  70  64 SE15      29.93S
OKC/TINKER AFB PTCLDY    79  69  71 SE8       29.95R
STILLWATER     CLEAR     81  69  67 SE13      29.93S
GUTHRIE        PTCLDY    80  70  71 SE15G21   29.92F
$$

OKZ008-013-054>072-220300-
NORTHEAST OKLAHOMA

CITY           SKY/WX    TMP DP  RH WIND       PRES   REMARKS
TULSA          MOCLDY    82  70  66 S12       29.95S
TULSA/JONES    CLEAR     81  69  67 S8        29.97R
PONCA CITY     PTCLDY    80  70  71 S15G24    29.91F
BARTLESVILLE   CLEAR     77  71  82 S9        29.96R
MUSKOGEE       CLEAR     76  68  76 SE7       30.00R
$$

OKZ032-040>043-046>053-073>077-220300-
SOUTH CENTRAL/SOUTHEAST OKLAHOMA

CITY           SKY/WX    TMP DP  RH WIND       PRES   REMARKS
MCALESTER      CLEAR     78  69  73 SE6       30.00R
$$




USA.gov is the U.S. government's official web portal to all federal, state and local government web resources and services.